This is the latest recevied weather packets stored in our database for station/object HB9EYW-6. If no packets are shown the sender has not sent any weather packets the latest 10 day(s).
| Time | Temp. | Humidity | Pressure | Rain* | Wind** | Luminosity | Snow |
|---|---|---|---|---|---|---|---|
| 1777902605 | 20° C | 34% | 0 hPa | 0 mm | - | - | - |
| 1777902305 | 20° C | 31% | 0 hPa | 0 mm | - | - | - |
| 1777902005 | 20.56° C | 29% | 0 hPa | 0 mm | - | - | - |
| 1777901705 | 20.56° C | 26% | 0 hPa | 0 mm | - | - | - |
| 1777901405 | 20.56° C | 26% | 0 hPa | 0 mm | - | - | - |
| 1777901105 | 20.56° C | 26% | 0 hPa | 0 mm | - | - | - |
| 1777900805 | 20.56° C | 24% | 0 hPa | 0 mm | - | - | - |
| 1777900505 | 21.11° C | 23% | 0 hPa | 0 mm | - | - | - |
| 1777900205 | 21.11° C | 24% | 0 hPa | 0 mm | - | - | - |
| 1777899905 | 21.11° C | 24% | 0 hPa | 0 mm | - | - | - |
| 1777899605 | 21.11° C | 24% | 0 hPa | 0 mm | - | - | - |
| 1777899305 | 21.11° C | 23% | 0 hPa | 0 mm | - | - | - |
| 1777899005 | 21.67° C | 22% | 0 hPa | 0 mm | - | - | - |
| 1777898705 | 21.67° C | 20% | 0 hPa | 0 mm | - | - | - |
| 1777898405 | 22.22° C | 22% | 0 hPa | 0 mm | - | - | - |
| 1777898105 | 22.22° C | 22% | 0 hPa | 0 mm | - | - | - |
| 1777897805 | 22.22° C | 22% | 0 hPa | 0 mm | - | - | - |
| 1777897505 | 22.22° C | 20% | 0 hPa | 0 mm | - | - | - |
| 1777897205 | 22.78° C | 20% | 0 hPa | 0 mm | - | - | - |
| 1777896905 | 22.78° C | 22% | 0 hPa | 0 mm | - | - | - |
| 1777896605 | 22.22° C | 22% | 0 hPa | 0 mm | - | - | - |
| 1777896305 | 22.22° C | 20% | 0 hPa | 0 mm | - | - | - |
| 1777896005 | 22.22° C | 20% | 0 hPa | 0 mm | - | - | - |
| 1777895705 | 22.78° C | 20% | 0 hPa | 0 mm | - | - | - |
| 1777895405 | 22.78° C | 21% | 0 hPa | 0 mm | - | - | - |
* Rain latest hour (hover to see other rain measurements)
** Current wind speed in m/s (hover to see current wind gust speed)